Date,TemperatureHighF,TemperatureAvgF,TemperatureLowF,DewpointHighF,DewpointAvgF,DewpointLowF,HumidityHigh,HumidityAvg,HumidityLow,PressureMaxIn,PressureMinIn,WindSpeedMaxMPH,WindSpeedAvgMPH,GustSpeedMaxMPH,PrecipitationSumIn
2014-1-1,72.3,50.0,32.1,47.6,37.1,26.4,88,64,39,30.24,29.88,19,3,19,0.00
2014-1-2,47.4,33.1,22.5,26.6,21.1,18.4,86,63,36,30.51,30.24,17,2,17,0.00
2014-1-3,54.3,37.3,18.9,27.7,22.5,16.5,93,60,29,30.48,30.03,14,3,15,0.00
2014-1-4,71.8,55.0,38.8,50.5,43.8,23.9,93,68,45,30.04,29.72,20,4,20,0.00
2014-1-5,50.9,34.4,21.4,37.7,21.7,9.9,77,60,43,30.58,29.78,21,4,21,0.00
2014-1-6,35.2,22.1,13.0,14.6,8.2,3.3,82,56,34,30.80,30.58,11,1,11,0.00
2014-1-7,49.0,32.3,12.3,19.5,14.0,8.9,90,52,24,30.63,30.28,17,3,17,0.00
2014-1-8,51.5,44.6,39.6,50.7,39.5,16.1,97,84,35,30.28,30.08,17,4,17,0.00
2014-1-9,60.8,51.1,47.8,50.8,48.9,46.4,98,92,66,30.20,29.97,8,1,11,0.00
2014-1-10,72.0,60.4,46.9,62.0,55.1,37.2,99,85,48,29.97,29.67,20,2,20,0.01
2014-1-11,70.3,48.9,33.8,40.2,31.6,22.5,94,60,17,30.15,29.83,14,1,14,0.00
2014-1-12,75.3,57.4,32.1,55.2,38.9,27.5,85,54,24,30.05,29.78,21,3,21,0.00
2014-1-13,64.5,52.4,28.8,56.1,31.4,17.5,85,50,17,30.09,29.77,18,3,18,0.00
2014-1-14,68.3,45.2,24.3,35.0,25.8,19.4,91,54,18,30.39,30.03,15,2,19,0.00
2014-1-15,61.8,43.0,27.4,29.8,24.1,18.6,73,50,24,30.44,30.10,14,1,14,0.00
2014-1-16,65.9,45.0,27.5,35.9,29.9,24.1,90,60,29,30.24,30.03,20,1,20,0.00
2014-1-17,58.4,41.1,27.8,29.4,21.8,14.9,84,53,20,30.40,30.22,13,1,13,0.00
2014-1-18,69.9,45.5,25.0,33.9,28.0,20.9,90,56,24,30.22,30.05,17,1,17,0.00
2014-1-19,69.7,46.9,25.9,33.8,28.1,22.5,89,55,19,30.32,30.05,8,1,8,0.00
2014-1-20,75.3,55.7,33.8,42.9,32.0,26.1,84,45,18,30.24,29.83,16,2,16,0.00
2014-1-21,55.9,43.3,28.2,26.8,22.9,17.2,79,47,24,30.45,30.18,17,1,17,0.00
2014-1-22,69.1,46.0,23.3,32.0,26.9,19.9,91,52,20,30.18,30.00,19,2,19,0.00
2014-1-23,46.5,35.1,26.8,26.5,12.2,-2.2,53,39,26,30.77,30.13,24,8,24,0.00
2014-1-24,46.4,31.3,18.6,16.4,5.7,-1.0,54,35,21,30.78,30.29,14,2,14,0.00
2014-1-25,67.7,42.9,20.2,34.8,24.6,13.2,86,54,24,30.29,29.99,11,1,11,0.00
2014-1-26,78.0,58.0,43.2,38.4,32.4,23.9,73,43,16,29.99,29.61,16,1,16,0.00
2014-1-27,53.4,38.4,27.7,32.8,10.0,-2.0,56,32,21,30.35,29.79,28,6,28,0.00
2014-1-28,38.4,27.4,16.7,15.2,6.3,-0.9,79,42,23,30.53,30.34,17,3,17,0.00
2014-1-29,49.1,30.7,10.8,20.5,14.4,7.7,91,56,25,30.50,30.19,17,2,17,0.00
2014-1-30,65.5,46.9,30.1,45.8,33.5,16.1,77,60,44,30.19,29.79,21,5,21,0.00
2014-1-31,78.3,62.4,50.3,58.5,51.7,45.0,95,71,40,29.87,29.72,16,4,16,0.00
2014-2-1,65.8,52.7,43.7,59.7,42.0,31.5,82,67,55,30.01,29.72,16,3,16,0.00
2014-2-2,44.9,34.1,29.3,32.4,28.8,25.9,92,81,60,30.31,30.00,19,3,19,0.19
2014-2-3,42.2,35.6,29.4,37.1,31.8,26.3,94,86,77,30.31,30.01,14,2,14,0.00
2014-2-4,55.2,43.2,35.3,46.0,39.9,32.6,97,89,66,30.15,29.87,11,1,11,0.18
2014-2-5,37.8,29.8,21.8,34.0,20.9,14.2,89,70,58,30.56,30.14,19,3,19,0.00
2014-2-6,24.9,21.6,17.6,17.9,14.5,10.8,78,74,70,30.63,30.44,13,3,14,0.00
2014-2-7,32.1,28.6,23.6,27.1,22.1,16.8,83,76,69,30.45,30.24,8,2,9,0.00
2014-2-8,65.2,44.9,31.7,43.0,35.8,27.1,92,74,41,30.24,29.97,12,4,16,0.00
2014-2-9,50.2,39.5,29.3,44.0,37.2,28.0,97,92,78,30.16,30.00,16,2,16,0.00
2014-2-10,36.8,32.5,29.4,35.2,30.8,27.6,95,93,91,30.31,30.15,18,2,18,0.02
2014-2-11,32.6,30.5,28.8,29.2,27.8,25.5,94,90,87,30.38,30.26,15,2,15,0.00
2014-2-12,53.7,37.5,27.1,34.9,30.2,24.5,91,76,47,30.29,30.08,10,1,10,0.01
2014-2-13,72.5,46.9,23.1,41.2,33.4,21.6,96,66,28,30.09,29.86,11,1,11,0.00
2014-2-14,73.7,53.3,33.8,43.6,32.5,21.9,93,52,18,30.09,29.73,25,2,25,0.00
2014-2-15,73.0,50.5,29.3,40.0,32.8,25.6,89,56,25,30.15,29.97,10,2,16,0.00
2014-2-16,74.4,59.8,46.0,60.5,53.4,39.7,97,80,54,30.03,29.85,14,2,18,0.00
2014-2-17,75.8,62.5,48.5,58.5,38.3,21.2,98,51,14,30.13,29.85,23,2,23,0.00
2014-2-18,82.4,61.1,37.4,59.6,46.9,30.7,83,62,37,30.10,29.81,15,2,15,0.00
2014-2-19,69.0,63.5,55.4,63.4,60.3,53.1,98,90,79,29.88,29.61,16,3,16,0.00
2014-2-20,74.8,62.6,33.6,63.3,45.9,26.3,85,59,26,30.10,29.59,23,3,23,0.00
2014-2-21,68.5,49.0,25.3,36.9,27.6,21.5,94,51,19,30.18,29.98,13,2,13,0.00
2014-2-22,77.0,61.9,49.5,54.1,43.9,31.6,80,53,40,30.01,29.77,18,3,18,0.00
2014-2-23,74.2,59.1,43.4,59.5,48.8,39.1,97,72,37,30.12,29.83,14,2,15,0.00
2014-2-24,58.7,49.1,39.3,46.6,41.7,35.9,90,76,62,30.18,30.02,11,1,11,0.00
2014-2-25,54.1,49.3,42.2,49.2,44.2,31.7,94,83,58,30.17,30.01,16,4,16,0.00
2014-2-26,46.1,37.1,24.6,36.1,21.0,15.7,85,54,31,30.36,30.16,23,4,23,0.00
2014-2-27,58.1,39.4,18.0,34.0,24.5,15.3,93,60,31,30.20,29.85,15,2,15,0.00
2014-2-28,84.7,60.0,41.4,45.7,35.6,26.1,82,48,13,29.85,29.66,20,4,20,0.00
2014-3-1,83.0,59.5,39.9,65.3,49.2,37.6,96,72,39,29.95,29.79,18,2,18,0.00
2014-3-2,67.7,31.3,18.6,62.5,27.7,13.1,92,86,74,30.40,29.88,17,4,18,0.00
2014-3-3,38.4,25.7,15.4,21.1,15.9,9.8,80,67,47,30.54,30.34,16,3,16,0.01
2014-3-4,53.8,38.4,27.5,33.7,26.1,20.1,84,63,38,30.35,30.01,11,2,11,0.00
2014-3-5,57.9,45.2,34.1,40.4,36.1,31.0,93,72,51,30.19,29.97,14,3,14,0.00
2014-3-6,61.8,47.9,35.3,40.1,37.9,31.8,89,70,42,30.27,30.05,8,1,11,0.00
2014-3-7,70.0,53.4,34.9,46.1,40.9,31.4,92,66,38,30.05,29.80,15,4,19,0.00
2014-3-8,55.4,47.7,38.8,51.0,39.9,32.2,92,74,59,30.33,29.83,18,3,18,0.00
2014-3-9,65.8,48.9,37.0,42.2,36.8,31.7,83,65,41,30.37,30.18,13,1,13,0.00
2014-3-10,80.0,57.4,33.9,56.0,43.2,31.9,96,65,27,30.20,29.85,12,1,12,0.00
2014-3-11,88.2,68.4,54.5,56.8,50.4,37.3,94,60,21,29.87,29.47,19,3,21,0.00
2014-3-12,64.3,52.3,37.7,38.2,28.3,20.3,69,43,19,30.29,29.82,14,4,24,0.00
2014-3-13,69.8,50.5,24.7,33.6,25.8,20.6,89,46,17,30.34,30.05,14,2,14,0.00
2014-3-14,75.3,60.7,47.2,55.2,46.6,32.0,83,61,44,30.06,29.89,15,3,15,0.00
2014-3-15,68.6,61.7,54.0,63.2,58.6,52.9,97,90,76,29.95,29.65,15,2,15,0.59
2014-3-16,55.8,48.0,43.6,55.0,41.8,34.8,98,79,68,30.10,29.73,22,4,22,0.00
2014-3-17,64.7,48.9,30.2,34.6,31.6,26.5,90,55,28,30.09,29.70,12,2,12,0.00
2014-3-18,90.0,66.9,47.4,47.5,33.2,9.4,62,35,8,29.87,29.53,19,5,19,0.00
2014-3-19,69.7,55.5,43.3,36.6,33.0,27.9,71,44,27,30.21,29.82,16,2,17,0.00
2014-3-20,74.8,54.5,31.9,42.3,33.8,28.6,92,53,20,30.24,29.98,12,1,12,0.00
2014-3-21,82.0,66.6,52.5,60.8,51.9,35.3,81,60,44,30.00,29.75,17,3,17,0.00
2014-3-22,66.5,58.6,50.9,60.7,52.7,45.4,92,81,64,30.10,29.84,15,3,15,0.00
2014-3-23,58.6,50.6,38.8,45.6,35.1,26.8,79,56,39,30.40,30.09,24,4,24,0.00
2014-3-24,72.3,52.6,33.3,43.1,37.0,29.2,88,58,33,30.27,30.01,11,1,11,0.00
2014-3-25,64.3,52.2,40.4,40.2,29.7,18.1,89,47,19,30.40,30.14,17,5,17,0.00
2014-3-26,63.3,54.1,41.4,53.2,42.7,29.6,88,66,49,30.21,29.87,24,4,24,0.09
2014-3-27,88.6,70.1,57.8,66.5,57.7,44.3,98,72,22,29.87,29.62,13,4,16,0.03
2014-3-28,81.0,67.1,54.2,67.9,56.0,41.9,98,71,39,30.06,29.68,15,2,15,0.01
2014-3-29,76.4,58.7,39.6,45.3,38.4,30.9,91,52,19,30.29,30.06,10,2,14,0.00
2014-3-30,79.8,62.2,39.8,50.0,40.0,34.1,85,49,25,30.20,29.91,22,4,22,0.00
2014-3-31,85.9,68.9,56.9,60.9,55.4,47.9,89,65,38,29.94,29.75,19,4,19,0.00
2014-4-1,85.7,73.8,64.3,66.3,63.0,60.0,90,71,46,29.94,29.76,18,4,18,0.00
2014-4-2,82.0,74.5,69.3,70.3,67.5,65.1,91,79,61,29.80,29.62,18,3,18,0.00
2014-4-3,88.1,75.6,62.5,70.9,68.2,44.9,97,79,48,29.83,29.55,27,3,27,0.29
2014-4-4,68.0,56.0,42.7,46.7,37.8,33.8,79,53,31,30.18,29.80,20,3,20,0.00
2014-4-5,57.7,51.1,44.3,44.7,41.0,36.7,84,69,49,30.13,29.91,21,4,21,0.00
2014-4-6,52.7,50.4,47.0,50.9,47.2,43.4,96,89,75,29.95,29.73,17,4,17,1.23
2014-4-7,71.3,56.6,49.2,54.2,50.2,45.7,97,81,46,30.02,29.79,17,1,17,0.01
2014-4-8,74.2,59.1,46.7,49.5,40.5,32.7,96,57,23,30.17,30.02,21,3,21,0.01
2014-4-9,85.9,63.8,38.9,49.7,42.5,37.3,97,54,19,30.21,29.97,14,2,14,0.00
2014-4-10,89.9,74.3,59.0,55.5,52.6,48.3,81,50,27,29.98,29.77,14,4,20,0.00
2014-4-11,85.5,73.0,60.4,64.8,60.5,54.6,89,66,48,29.95,29.82,17,4,19,0.00
2014-4-12,85.9,74.6,65.2,65.2,62.3,60.2,86,67,46,29.87,29.68,23,5,23,0.00
2014-4-13,79.4,71.3,66.4,69.3,65.8,59.6,95,83,64,29.77,29.52,24,4,24,0.20
2014-4-14,71.0,51.0,42.8,59.5,38.1,29.6,76,62,42,30.28,29.65,12,4,18,0.00
2014-4-15,66.2,49.0,28.3,34.0,27.5,21.3,94,50,21,30.36,30.11,7,1,11,0.00
2014-4-16,69.5,56.5,39.6,48.3,38.8,32.9,81,54,34,30.11,29.88,22,4,22,0.00
2014-4-17,63.6,57.1,52.1,58.4,53.3,46.6,95,87,72,30.19,29.97,14,4,14,0.12
2014-4-18,76.4,63.2,52.0,57.3,54.5,50.9,98,76,45,30.22,30.08,13,1,13,0.00
2014-4-19,78.4,61.9,46.3,58.2,52.3,45.0,97,75,46,30.17,30.03,14,2,14,0.00
2014-4-20,79.0,67.2,58.9,64.2,59.2,53.3,96,77,45,30.11,29.99,16,2,16,0.70
2014-4-21,89.7,73.4,63.5,68.1,64.1,60.2,96,75,45,30.02,29.86,12,2,12,0.02
2014-4-22,83.7,70.6,56.5,65.6,60.0,53.3,98,72,37,30.04,29.88,15,2,15,0.00
2014-4-23,88.1,72.1,53.0,66.1,59.4,51.6,98,69,37,29.91,29.65,22,3,22,0.00
2014-4-24,84.8,73.8,61.5,66.3,55.9,43.7,89,58,25,29.92,29.68,18,4,18,0.00
2014-4-25,86.3,69.4,48.3,51.8,47.1,42.5,91,50,23,30.03,29.82,18,3,18,0.00
2014-4-26,82.7,73.1,61.3,70.4,62.8,47.9,90,71,47,29.84,29.57,24,4,24,0.00
2014-4-27,92.8,80.1,65.6,70.7,55.3,32.2,86,51,13,29.58,29.36,21,5,21,0.00
2014-4-28,87.3,73.6,50.4,45.9,36.9,24.6,71,30,11,29.68,29.48,19,2,19,0.00
2014-4-29,77.2,67.3,51.6,47.9,39.0,31.2,64,37,20,29.97,29.57,21,3,21,0.00
2014-4-30,70.5,57.1,42.8,40.2,35.9,28.7,81,48,23,30.17,29.96,19,2,19,0.00
2014-5-1,77.1,58.0,34.5,44.7,35.2,28.5,95,51,19,30.19,30.00,14,1,14,0.00
2014-5-2,83.3,63.2,39.8,47.6,36.7,25.9,94,47,13,30.04,29.87,14,1,14,0.00
2014-5-3,94.0,68.3,41.0,47.6,38.6,27.2,92,44,10,30.02,29.90,9,1,9,0.00
2014-5-4,94.1,78.2,56.6,48.9,42.0,33.1,58,31,12,29.99,29.83,17,3,17,0.00
2014-5-5,94.3,78.4,60.5,60.9,53.6,42.7,58,43,29,29.89,29.67,22,4,22,0.00
2014-5-6,85.8,76.4,63.4,66.4,62.5,57.8,84,63,48,29.75,29.61,22,5,22,0.00
2014-5-7,87.1,78.0,70.7,69.5,65.9,64.0,81,67,49,29.78,29.65,22,6,25,0.00
2014-5-8,85.3,73.3,66.0,74.5,68.2,63.3,94,84,65,29.85,29.65,16,2,16,0.36
2014-5-9,87.5,76.4,65.5,71.1,63.3,47.7,97,69,27,29.88,29.73,15,1,15,0.00
2014-5-10,89.9,76.3,62.3,69.0,64.3,58.4,90,69,44,29.87,29.68,20,4,20,0.00
2014-5-11,89.3,79.9,73.0,70.7,68.7,66.3,86,70,48,29.76,29.60,23,6,23,0.00
2014-5-12,83.7,71.2,58.5,75.2,66.8,55.9,97,87,74,30.02,29.65,24,4,24,1.93
2014-5-13,67.7,60.2,53.7,56.0,49.4,45.8,92,69,50,30.28,30.01,18,3,19,0.19
2014-5-14,74.5,61.0,49.3,52.3,45.5,35.9,96,64,26,30.28,30.15,19,2,19,0.06
2014-5-15,86.2,65.9,44.2,53.0,42.3,30.2,97,52,14,30.23,30.01,10,1,14,0.00
2014-5-16,89.1,71.8,48.6,53.7,47.2,39.3,91,47,21,30.08,29.82,15,3,15,0.00
2014-5-17,84.9,74.4,59.2,62.9,53.4,41.4,67,49,33,29.95,29.83,14,3,15,0.00
2014-5-18,84.8,74.2,63.2,63.1,60.6,55.8,89,64,44,30.02,29.89,23,4,23,0.00
2014-5-19,87.0,76.1,64.7,64.3,62.0,60.0,89,63,45,29.97,29.83,20,6,20,0.00
2014-5-20,88.5,78.1,67.8,64.8,63.3,58.8,85,62,40,29.99,29.88,20,5,20,0.00
2014-5-21,88.8,78.4,70.0,66.2,64.5,62.6,85,64,44,30.01,29.90,19,4,19,0.00
2014-5-22,88.0,77.3,67.1,69.4,66.1,62.4,90,70,51,30.05,29.90,17,3,17,0.00
2014-5-23,83.9,76.3,69.5,68.1,65.9,63.3,86,71,55,30.03,29.93,22,3,22,0.00
2014-5-24,86.0,73.4,64.4,71.4,67.6,62.9,97,83,59,30.01,29.90,30,3,30,2.44
2014-5-25,82.1,72.7,67.3,69.4,67.3,64.9,97,84,62,29.99,29.83,25,2,25,0.32
2014-5-26,80.8,74.0,68.9,68.7,65.8,61.5,93,76,53,30.00,29.84,26,3,26,0.00
2014-5-27,80.2,69.0,63.3,70.4,65.6,62.0,97,90,68,29.97,29.79,16,2,16,1.12
2014-5-28,83.7,72.7,63.6,68.8,65.6,63.0,98,80,54,29.93,29.82,14,1,14,0.00
2014-5-29,89.0,75.8,63.3,70.2,65.7,61.8,97,74,46,29.90,29.77,12,1,12,0.00
2014-5-30,87.3,77.6,67.2,71.5,67.8,64.5,95,74,52,29.86,29.77,14,2,14,0.00
2014-5-31,88.0,77.5,67.3,72.1,69.4,65.8,97,78,54,29.92,29.82,15,2,15,0.00
2014-6-1,90.5,79.3,69.1,73.5,70.3,67.6,97,76,52,29.93,29.77,14,2,14,0.00
2014-6-2,89.8,80.4,73.3,72.5,70.5,68.9,90,73,52,29.94,29.79,17,3,17,0.00
2014-6-3,89.3,80.9,73.3,74.2,71.9,70.6,94,75,56,29.97,29.83,12,2,15,0.00
2014-6-4,93.2,83.1,74.6,74.8,72.3,70.5,92,71,52,29.83,29.71,16,3,16,0.00
2014-6-5,90.3,81.4,72.7,74.6,72.1,70.2,92,74,58,29.80,29.71,17,2,17,0.00
2014-6-6,92.8,83.2,73.4,73.9,71.9,69.7,93,71,49,29.89,29.72,15,3,15,0.00
2014-6-7,94.1,83.9,74.4,72.8,71.1,69.1,90,67,45,29.90,29.77,15,3,15,0.00
2014-6-8,88.3,79.7,68.7,73.8,70.7,65.9,92,75,57,29.96,29.71,19,2,19,0.04
2014-6-9,80.5,73.0,63.5,72.3,66.5,61.8,95,81,58,29.82,29.69,18,1,18,0.87
2014-6-10,86.2,73.8,64.9,66.3,62.2,58.1,92,68,48,29.86,29.76,9,2,15,0.00
2014-6-11,94.5,78.6,59.9,72.0,65.8,58.8,98,69,36,29.88,29.66,18,2,18,0.00
2014-6-12,85.8,78.9,73.3,74.7,72.1,68.5,94,80,67,29.89,29.65,27,5,27,0.14
2014-6-13,88.0,79.7,70.8,73.8,71.7,68.8,95,78,61,29.97,29.83,14,2,14,0.01
2014-6-14,90.1,80.1,73.5,74.6,71.0,67.1,91,75,56,29.88,29.73,20,2,20,0.00
2014-6-15,91.8,83.3,75.7,73.7,71.9,70.3,86,70,52,29.88,29.74,22,4,22,0.00
2014-6-16,94.0,84.0,74.6,74.2,72.2,69.1,92,69,48,29.95,29.83,22,4,22,0.00
2014-6-17,93.3,84.6,76.6,74.1,72.3,70.0,88,68,49,29.94,29.82,16,4,16,0.00
2014-6-18,92.8,83.3,76.1,74.6,72.4,69.6,87,71,49,29.92,29.83,19,4,19,0.00
2014-6-19,93.2,84.6,75.6,74.4,72.3,70.2,88,68,49,29.98,29.88,17,3,17,0.00
2014-6-20,92.4,82.4,74.3,73.2,70.8,66.6,89,70,45,30.04,29.94,11,1,11,0.00
2014-6-21,87.0,80.7,74.8,74.9,72.3,70.3,89,76,64,29.99,29.85,10,1,10,0.00
2014-6-22,78.0,73.3,69.0,73.9,71.0,67.5,99,93,79,29.94,29.77,28,3,28,5.14
2014-6-23,90.8,74.8,66.1,74.4,70.7,65.1,99,88,54,29.96,29.78,11,1,19,0.68
2014-6-24,89.5,76.2,70.3,79.4,71.9,67.8,98,87,65,30.05,29.86,16,1,16,0.46
2014-6-25,86.8,76.7,70.2,76.9,72.2,68.3,97,87,69,30.02,29.89,19,2,19,0.01
2014-6-26,90.3,79.7,72.5,74.5,72.4,70.5,96,80,57,29.98,29.79,24,3,24,0.00
2014-6-27,91.2,81.3,72.9,75.2,72.2,69.3,91,75,54,29.85,29.70,24,4,24,0.00
2014-6-28,90.8,83.1,77.2,75.5,73.9,72.2,89,75,58,29.86,29.76,16,4,20,0.00
2014-6-29,94.0,85.4,77.5,75.7,74.0,72.6,88,70,52,29.95,29.83,16,4,17,0.00
2014-6-30,95.6,85.1,75.1,74.1,71.2,66.4,89,66,39,29.92,29.76,19,4,19,0.00
2014-7-1,94.2,83.5,73.2,74.4,72.1,69.0,92,70,47,29.95,29.78,15,3,15,0.00
2014-7-2,91.5,83.2,73.9,76.5,72.8,69.3,87,72,55,30.03,29.90,15,1,16,0.00
2014-7-3,87.4,80.2,74.2,71.9,69.7,67.8,85,71,56,30.14,30.02,18,4,18,0.00
2014-7-4,93.0,81.8,70.0,73.0,70.3,67.7,93,70,46,30.17,30.06,12,2,12,0.00
2014-7-5,94.0,82.5,71.9,73.4,71.0,69.3,94,70,47,30.14,29.99,12,2,12,0.00
2014-7-6,91.1,81.4,70.7,74.4,71.3,68.1,93,73,54,30.02,29.89,12,2,12,0.00
2014-7-7,97.8,85.6,74.0,73.7,70.1,64.9,89,63,37,29.94,29.83,12,2,12,0.00
2014-7-8,98.0,86.4,75.7,73.9,70.4,67.2,83,61,39,29.96,29.87,11,1,11,0.00
2014-7-9,98.6,86.1,73.2,72.5,68.7,64.3,83,58,35,30.00,29.86,10,1,10,0.00
2014-7-10,96.9,85.6,74.0,73.7,67.1,61.7,81,56,33,30.00,29.87,13,2,13,0.00
2014-7-11,94.8,83.7,71.0,71.4,67.3,61.9,85,60,37,30.08,29.98,14,2,14,0.00
2014-7-12,96.7,83.1,64.1,70.2,64.9,59.3,94,58,32,30.13,29.98,15,1,15,0.00
2014-7-13,99.8,85.5,69.4,73.1,69.0,65.2,91,61,33,30.06,29.91,12,1,12,0.00
2014-7-14,103.0,86.0,72.0,72.8,69.4,64.8,86,61,30,29.97,29.82,10,1,13,0.00
2014-7-15,92.1,81.5,73.3,73.0,66.3,53.2,93,64,32,30.01,29.91,20,4,20,0.00
2014-7-16,89.8,78.4,65.6,73.0,65.3,54.8,79,65,47,29.99,29.80,19,3,19,0.00
2014-7-17,84.8,76.1,70.5,74.8,72.1,69.6,98,88,70,29.91,29.80,14,2,14,0.33
2014-7-18,76.8,70.9,66.2,69.6,66.5,64.7,97,87,71,29.99,29.90,11,2,11,0.00
2014-7-19,83.7,74.6,68.1,68.5,66.4,64.9,91,77,57,30.02,29.92,10,2,12,0.00
2014-7-20,93.5,78.6,66.0,77.7,71.0,63.8,96,79,57,30.01,29.87,14,2,14,0.00
2014-7-21,98.1,85.9,75.7,79.0,74.7,68.6,95,72,40,29.99,29.88,14,2,14,0.00
2014-7-22,98.5,86.5,75.9,78.4,73.5,68.8,92,68,40,30.02,29.93,14,2,14,0.00
2014-7-23,99.2,84.7,72.0,75.3,70.4,65.7,95,66,36,30.06,29.93,29,2,29,0.00
2014-7-24,97.7,84.9,74.5,73.4,68.8,64.0,82,61,36,30.02,29.87,16,2,16,0.00
2014-7-25,99.2,85.9,70.5,75.2,70.2,67.4,92,63,37,29.97,29.84,11,1,11,0.00
2014-7-26,100.0,88.5,76.8,74.5,71.3,68.3,84,59,37,29.95,29.82,14,2,14,0.00
2014-7-27,102.2,89.7,78.2,73.2,70.1,66.1,81,55,32,29.98,29.90,12,2,12,0.00
2014-7-28,95.7,86.3,75.1,74.7,69.0,61.8,85,58,37,30.08,29.96,20,3,20,0.00
2014-7-29,87.8,78.2,72.5,70.7,65.9,60.3,80,67,42,30.13,29.99,17,2,17,0.03
2014-7-30,92.8,82.1,70.3,74.2,70.2,64.6,86,69,53,30.00,29.82,18,3,18,0.00
2014-7-31,84.1,77.0,69.8,73.5,69.8,65.7,91,79,67,30.01,29.85,13,2,13,0.00
2014-8-1,86.7,75.2,67.6,69.5,67.0,64.7,92,77,53,30.03,29.95,14,2,14,0.00
2014-8-2,90.4,76.5,61.9,69.9,64.9,60.7,98,71,40,30.08,29.97,16,2,16,0.00
2014-8-3,92.8,79.4,65.1,72.2,66.2,63.3,96,67,42,30.07,29.93,18,2,18,0.00
2014-8-4,94.7,81.6,67.7,73.9,68.1,64.9,95,67,41,30.04,29.91,16,2,16,0.00
2014-8-5,99.3,84.3,69.1,74.6,69.1,63.8,94,64,33,30.04,29.90,14,2,14,0.00
2014-8-6,100.3,87.7,75.9,74.0,70.0,64.7,87,59,33,29.98,29.82,12,2,12,0.00
2014-8-7,101.5,89.1,77.7,74.9,71.1,67.1,79,58,36,29.87,29.72,11,2,11,0.00
2014-8-8,104.0,89.4,79.7,75.3,70.6,66.0,78,56,30,29.88,29.77,13,2,13,0.00
2014-8-9,101.7,89.6,75.5,73.8,69.0,64.0,83,53,30,29.93,29.81,15,1,15,0.00
2014-8-10,104.5,89.7,76.3,73.4,68.2,63.2,80,52,28,29.97,29.83,15,1,15,0.00
2014-8-11,98.2,86.5,73.0,72.4,68.4,62.6,81,57,36,30.01,29.91,15,2,15,0.00
2014-8-12,96.8,83.9,71.3,70.1,63.1,53.8,90,55,24,30.04,29.94,20,3,20,0.00
2014-8-13,96.2,81.3,63.9,63.1,60.1,58.0,86,52,30,30.07,29.93,15,2,15,0.00
2014-8-14,96.8,82.3,66.2,66.2,62.8,60.1,85,55,33,30.04,29.89,19,2,19,0.00
2014-8-15,101.2,85.9,71.2,72.4,65.9,61.3,81,54,29,29.95,29.77,12,2,12,0.00
2014-8-16,98.2,85.5,74.8,78.4,71.4,66.7,96,64,41,29.89,29.77,26,3,26,0.37
2014-8-17,89.3,81.0,73.1,76.6,73.4,69.5,96,78,60,29.96,29.83,14,2,14,0.20
2014-8-18,90.9,81.3,73.8,76.8,73.4,70.1,94,78,57,29.94,29.80,12,0,12,0.18
2014-8-19,94.0,81.6,71.5,74.8,70.2,65.0,95,71,40,29.90,29.77,14,2,14,0.03
2014-8-20,98.5,87.0,78.4,74.1,70.4,64.8,81,60,34,29.92,29.80,16,3,16,0.00
2014-8-21,100.3,88.5,77.5,75.7,70.3,62.0,86,58,29,29.97,29.85,16,3,16,0.00
2014-8-22,101.8,89.6,79.1,74.8,67.8,55.6,84,53,24,29.99,29.85,15,3,15,0.00
2014-8-23,100.6,88.0,74.7,70.0,65.6,59.7,73,50,27,29.95,29.80,14,2,14,0.00
2014-8-24,101.0,88.1,75.3,72.3,67.7,63.1,79,53,31,29.90,29.77,13,2,13,0.00
2014-8-25,100.3,88.8,74.0,73.4,68.1,62.4,83,53,31,29.92,29.80,14,2,14,0.00
2014-8-26,98.8,86.9,72.8,73.9,69.3,67.0,85,58,38,29.98,29.87,20,3,20,0.00
2014-8-27,95.5,85.1,72.7,73.7,68.7,62.5,89,60,39,30.01,29.88,16,3,16,0.00
2014-8-28,97.8,84.3,70.0,70.9,66.2,59.0,82,57,29,29.94,29.76,12,2,14,0.00
2014-8-29,95.7,81.3,69.9,73.6,69.8,64.2,95,71,36,29.91,29.77,18,2,18,0.52
2014-8-30,94.1,83.2,72.7,76.2,72.4,70.0,95,72,48,29.91,29.80,16,2,16,0.00
2014-8-31,96.3,85.2,75.1,75.6,72.2,69.0,90,67,44,29.92,29.78,18,2,18,0.00
2014-9-1,98.2,84.9,76.9,74.8,72.5,68.8,89,69,41,29.86,29.75,18,4,19,0.00
2014-9-2,97.8,88.8,78.0,74.7,71.9,67.9,85,59,39,29.90,29.79,16,3,17,0.00
2014-9-3,96.8,86.6,77.8,74.2,70.4,65.6,86,61,38,29.94,29.83,14,3,16,0.00
2014-9-4,97.3,83.9,75.2,74.7,69.5,65.9,86,64,39,29.99,29.86,15,2,18,0.00
2014-9-5,97.0,85.3,75.0,74.5,70.5,65.1,88,63,37,30.04,29.89,16,2,17,0.00
2014-9-6,96.0,79.5,72.2,77.1,71.7,68.7,98,79,45,30.05,29.94,15,2,19,0.75
2014-9-7,88.7,76.7,70.1,73.3,70.1,67.0,93,81,58,30.07,29.94,8,1,8,0.00
2014-9-8,94.8,82.7,71.9,75.1,71.2,69.0,97,71,45,30.00,29.85,9,1,9,0.00
2014-9-9,97.5,86.7,76.4,73.3,69.6,66.5,82,59,38,29.92,29.73,13,2,17,0.00
2014-9-10,84.7,81.8,80.1,71.5,69.7,67.8,74,67,58,29.75,29.73,10,2,10,0.00
2014-9-11,89.0,80.1,73.3,74.6,70.7,68.2,85,74,61,29.96,29.86,12,2,14,0.00
2014-9-12,74.0,68.6,59.5,69.1,64.8,56.8,94,88,82,30.21,29.96,16,3,18,0.00
2014-9-13,72.4,62.9,57.6,59.2,55.9,52.0,91,78,62,30.27,30.16,9,3,15,0.00
2014-9-14,82.1,70.8,62.8,67.2,62.9,58.2,87,77,59,30.21,30.08,6,1,8,0.00
2014-9-15,87.7,77.5,69.9,71.5,68.7,65.6,94,75,56,30.12,30.02,8,1,9,0.00
2014-9-16,92.3,81.1,72.0,74.6,71.2,68.8,93,73,49,30.08,29.91,10,1,10,0.00
2014-9-17,92.7,80.6,72.3,74.8,72.0,68.3,96,77,47,29.95,29.78,8,1,10,0.14
2014-9-18,88.1,77.3,72.4,76.5,72.7,70.5,97,87,59,29.88,29.78,14,1,15,0.04
2014-9-19,89.2,77.4,69.3,72.9,71.0,68.4,98,82,56,29.93,29.83,12,2,15,0.00
2014-9-20,91.0,79.8,71.8,73.8,70.3,65.1,95,75,49,29.97,29.87,16,2,18,0.00
2014-9-21,94.4,78.7,65.4,71.7,65.5,61.7,98,68,36,30.06,29.94,9,1,10,0.00
2014-9-22,90.3,78.5,70.5,69.7,61.8,51.3,85,59,33,30.15,30.03,17,4,17,0.00
2014-9-23,85.2,71.8,57.8,58.7,54.4,50.5,90,57,34,30.16,30.02,11,2,11,0.00
2014-9-24,88.1,71.5,53.4,59.1,50.8,43.8,90,53,22,30.16,30.04,12,1,12,0.00
2014-9-25,88.4,71.9,53.9,60.7,53.4,49.2,89,57,27,30.16,30.03,14,1,15,0.00
2014-9-26,87.4,75.7,62.6,67.4,59.1,53.6,84,58,40,30.10,29.97,14,2,14,0.00
2014-9-27,89.0,77.0,64.9,66.0,60.2,57.9,82,58,37,30.04,29.91,14,2,17,0.00
2014-9-28,85.8,75.7,65.3,66.6,62.1,59.3,84,64,47,30.03,29.93,13,1,13,0.00
2014-9-29,89.7,68.7,60.4,65.4,61.1,58.4,96,79,37,29.99,29.85,11,1,13,0.00
2014-9-30,92.9,80.3,66.8,69.8,64.6,59.9,96,63,35,29.86,29.69,11,1,13,0.00
2014-10-1,93.9,82.8,73.4,72.9,69.3,66.7,91,66,44,29.76,29.65,15,2,15,0.00
2014-10-2,93.4,81.3,68.6,76.0,67.7,54.2,89,65,34,29.93,29.60,11,2,19,0.07
2014-10-3,85.8,68.5,54.1,58.0,50.6,44.1,95,58,26,30.20,29.93,16,2,18,0.00
2014-10-4,81.8,64.1,44.6,50.3,40.7,32.1,90,50,18,30.21,29.93,13,1,13,0.00
2014-10-5,87.0,72.2,60.5,65.7,58.1,43.2,84,62,46,29.93,29.74,14,2,14,0.00
2014-10-6,85.5,76.8,69.8,71.1,67.1,63.7,91,73,56,29.87,29.76,14,2,14,0.00
2014-10-7,99.2,82.6,69.1,72.7,65.8,56.2,96,62,25,29.88,29.77,17,2,17,0.00
2014-10-8,91.9,80.7,73.8,71.7,67.7,60.7,86,67,40,29.97,29.85,12,2,17,0.00
2014-10-9,93.6,82.5,74.5,72.9,69.1,64.2,89,67,40,29.92,29.77,15,3,15,0.00
2014-10-10,93.0,81.2,64.3,72.1,67.8,63.0,97,66,41,29.93,29.76,23,3,23,0.49
2014-10-11,65.1,58.1,52.3,64.2,55.3,50.9,100,91,76,30.09,29.88,15,2,15,0.51
2014-10-12,73.8,61.5,49.7,69.3,58.4,48.6,100,90,73,30.04,29.60,17,2,17,0.00
2014-10-13,74.8,62.4,49.3,72.0,55.8,47.4,98,80,54,29.99,29.55,29,4,29,1.25
2014-10-14,79.2,57.0,46.1,49.1,44.9,38.2,96,71,24,30.14,29.98,14,1,18,0.00
2014-10-15,91.6,62.9,45.0,55.1,48.3,43.4,98,67,22,30.09,29.94,12,0,12,0.00
2014-10-16,89.8,69.0,48.4,58.6,49.7,43.1,98,59,21,29.94,29.77,15,1,15,0.00
2014-10-17,93.1,71.7,53.7,60.6,55.3,49.6,90,59,34,29.92,29.78,10,1,10,0.00
2014-10-18,84.2,71.6,63.6,63.7,59.5,53.5,84,67,48,30.07,29.92,13,4,13,0.00
2014-10-19,79.7,68.2,58.7,64.2,59.2,55.0,88,74,58,30.12,29.99,10,2,10,0.00
2014-10-20,84.0,69.0,57.2,67.1,60.1,55.3,97,76,44,30.08,29.96,8,0,8,0.00
2014-10-21,83.4,68.1,54.3,64.5,56.8,51.3,98,71,35,30.08,29.97,14,1,14,0.00
2014-10-22,81.0,68.0,54.7,65.5,59.6,53.3,98,76,53,30.12,30.02,13,1,13,0.00
2014-10-23,83.8,71.2,65.2,63.7,60.4,57.8,79,69,49,30.12,30.00,8,1,8,0.00
2014-10-24,87.2,72.2,61.7,66.2,61.2,56.8,87,70,46,30.13,30.01,10,1,10,0.00
2014-10-25,91.3,75.0,63.6,66.6,62.4,59.3,88,67,38,30.11,30.00,9,1,9,0.00
2014-10-26,88.2,74.9,63.7,63.8,59.4,54.9,85,62,36,30.00,29.80,14,2,14,0.00
2014-10-27,85.9,74.6,66.4,65.0,61.1,55.3,87,64,46,29.83,29.71,17,4,17,0.00
2014-10-28,80.5,73.2,65.2,64.8,61.2,50.2,81,67,52,30.07,29.79,15,2,15,0.00
2014-10-29,78.2,66.7,57.1,53.3,48.9,44.1,75,54,33,30.19,30.07,16,2,16,0.00
2014-10-30,80.8,63.6,49.9,66.2,55.2,45.8,96,76,53,30.15,30.01,11,1,11,0.06
2014-10-31,68.9,58.8,46.8,58.1,45.4,40.3,96,63,39,30.34,30.14,16,2,16,0.01
2014-11-1,63.9,50.9,40.3,40.5,35.4,32.8,81,58,32,30.43,30.26,16,3,16,0.00
2014-11-2,70.7,57.7,46.5,51.3,43.6,34.5,73,60,48,30.32,30.13,18,4,18,0.00
2014-11-3,75.4,67.4,58.0,61.7,57.8,51.2,88,72,60,30.15,30.01,21,3,21,0.00
2014-11-4,71.7,61.7,52.8,64.9,58.5,51.9,97,90,71,30.22,30.00,31,4,31,0.96
2014-11-5,57.7,54.0,52.1,56.3,53.1,51.3,98,97,94,30.26,30.15,7,1,8,0.16
2014-11-6,72.8,55.8,44.5,57.2,47.6,42.6,99,79,37,30.35,30.24,14,1,14,0.01
2014-11-7,70.9,53.9,39.5,50.3,42.6,37.1,98,70,35,30.31,30.01,9,1,9,0.00
2014-11-8,71.9,53.9,40.9,51.9,43.8,37.5,97,73,34,30.17,29.99,20,2,20,0.00
2014-11-9,77.4,55.7,35.7,47.8,41.2,34.2,97,65,25,30.17,29.82,14,1,14,0.00
2014-11-10,81.0,66.6,52.9,58.2,52.1,46.0,80,62,39,29.82,29.57,19,4,19,0.00
2014-11-11,67.5,40.9,0.0,58.2,28.6,0.0,77,53,44,30.27,29.65,17,3,17,0.00
2014-11-12,40.4,34.2,31.3,25.0,19.9,13.5,64,56,45,30.54,30.27,17,3,17,0.00
2014-11-13,40.9,34.5,30.6,15.9,10.5,8.1,52,37,26,30.64,30.50,15,5,16,0.00
2014-11-14,41.7,35.3,24.1,22.2,18.1,14.9,76,50,36,30.51,30.29,9,2,9,0.00
2014-11-15,47.8,42.9,34.8,44.3,33.4,22.1,96,70,54,30.29,30.00,11,4,17,0.00
2014-11-16,45.3,38.3,28.5,44.2,36.3,24.6,97,93,84,30.32,29.97,20,4,20,0.01
2014-11-17,48.1,33.2,22.7,25.5,22.0,18.2,87,67,32,30.48,30.30,15,1,15,0.00
2014-11-18,59.1,39.2,20.0,30.5,21.4,16.5,95,57,19,30.52,30.32,14,1,14,0.00
2014-11-19,69.1,48.6,35.8,39.3,31.6,22.3,87,54,30,30.32,30.10,14,1,14,0.00
2014-11-20,74.7,55.8,36.3,60.2,46.8,33.0,96,75,41,30.12,29.95,13,2,13,0.00
2014-11-21,72.8,65.2,60.7,64.3,61.7,58.5,96,89,73,30.08,29.97,24,3,24,0.00
2014-11-22,65.4,62.2,55.8,63.7,60.8,55.0,98,95,90,30.03,29.62,22,4,22,1.01
2014-11-23,77.3,60.8,48.3,56.5,48.2,38.3,100,69,28,29.84,29.40,21,3,21,0.00
2014-11-24,61.8,47.1,32.8,38.8,33.3,24.6,92,64,25,30.19,29.84,10,1,10,0.00
2014-11-25,63.7,43.3,29.4,39.4,31.7,27.9,97,70,27,30.34,30.13,13,1,13,0.00
2014-11-26,69.7,49.9,33.7,38.7,34.7,30.5,92,60,27,30.41,30.06,16,1,16,0.00
2014-11-27,62.1,47.6,34.5,36.2,30.7,24.6,90,55,27,30.55,30.35,13,2,13,0.00
2014-11-28,72.3,55.1,33.4,53.0,44.3,29.7,90,68,49,30.35,29.97,16,2,16,0.00
2014-11-29,77.9,64.5,51.4,60.8,52.9,46.7,84,68,41,29.98,29.82,19,4,19,0.00
2014-11-30,80.0,69.8,62.1,61.5,59.6,57.5,86,72,48,30.07,29.86,16,3,16,0.00
2014-12-1,61.9,40.4,32.6,57.9,27.4,19.9,93,60,46,30.49,30.07,15,3,15,0.00
2014-12-2,49.2,41.2,33.6,40.8,27.3,18.2,74,58,46,30.48,30.15,11,1,11,0.00
2014-12-3,59.7,54.6,48.1,56.2,50.2,39.2,91,85,70,30.21,30.10,12,2,12,0.00
2014-12-4,65.3,60.5,56.9,60.9,58.0,55.2,96,92,85,30.16,30.01,10,2,10,0.00
2014-12-5,80.2,66.9,56.5,66.6,60.3,52.8,100,82,50,30.20,29.94,14,2,15,0.01
2014-12-6,68.2,57.6,47.6,52.9,50.0,45.1,92,77,53,30.40,30.20,14,2,15,0.00
2014-12-7,52.2,47.8,39.4,47.6,45.5,38.0,97,92,83,30.41,30.27,10,1,10,0.00
2014-12-8,62.6,48.6,38.4,51.8,45.4,37.1,97,89,67,30.38,30.29,8,0,8,0.00
2014-12-9,64.7,46.2,38.3,56.8,43.9,37.0,98,92,67,30.39,30.25,7,1,11,0.00
2014-12-10,63.8,50.4,35.9,51.7,45.4,35.1,98,84,63,30.25,30.12,13,1,13,0.00
2014-12-11,64.3,60.0,55.4,59.3,55.6,49.9,93,85,76,30.19,30.10,8,1,8,0.00
2014-12-12,71.3,62.6,56.6,62.1,59.0,55.2,95,88,70,30.24,30.13,7,1,9,0.00
2014-12-13,71.3,62.0,55.7,60.3,57.7,54.3,96,86,66,30.19,30.00,15,2,16,0.00
2014-12-14,69.0,63.8,61.3,64.8,60.2,57.0,95,88,80,30.00,29.76,16,4,17,0.34
2014-12-15,66.2,56.1,36.3,60.5,40.5,33.2,90,59,34,30.20,29.80,17,3,17,0.00
2014-12-16,59.5,45.4,34.3,37.5,34.1,32.0,94,67,40,30.39,30.20,7,1,12,0.00
2014-12-17,49.1,45.7,44.2,43.9,39.5,36.0,96,79,67,30.30,30.06,17,3,17,0.27
2014-12-18,53.4,47.6,43.9,50.9,45.8,42.8,98,94,87,30.18,30.08,10,1,10,0.00
2014-12-19,49.4,47.4,45.6,46.9,45.4,44.0,96,93,89,30.25,30.10,12,2,12,0.04
2014-12-20,50.6,47.2,45.6,46.0,44.2,42.5,94,89,81,30.27,30.15,7,0,7,0.00
2014-12-21,54.2,50.1,47.4,50.3,47.6,45.8,95,91,84,30.17,29.71,13,3,13,0.00
2014-12-22,67.0,56.0,46.6,51.2,46.7,41.8,91,73,42,29.71,29.58,15,3,15,0.00
2014-12-23,53.7,47.3,0.0,46.2,39.6,0.0,94,70,63,29.87,29.66,14,2,14,0.21
2014-12-24,53.1,42.8,29.0,35.9,32.8,26.4,93,69,44,30.11,29.98,20,3,20,0.00
2014-12-25,63.8,48.9,29.7,43.8,32.0,27.4,93,57,28,30.03,29.88,17,4,24,0.00
2014-12-26,73.0,59.1,49.6,61.8,53.8,43.8,96,83,64,29.96,29.80,16,3,16,0.00
2014-12-27,62.7,43.2,35.7,61.2,37.2,27.4,95,79,71,30.34,29.96,17,4,17,0.00
2014-12-28,52.4,38.9,31.2,29.5,27.5,25.4,81,65,37,30.33,30.14,7,0,8,0.00
2014-12-29,63.0,43.1,27.7,42.7,33.8,24.9,91,72,45,30.24,30.01,12,2,14,0.00
2014-12-30,43.1,39.8,33.7,39.0,34.0,26.9,92,80,62,30.58,30.24,15,4,15,0.00
2014-12-31,34.7,32.8,29.3,27.8,25.7,23.9,80,75,70,30.64,30.44,16,3,16,0.00
2015-1-1,35.2,33.1,31.2,34.7,31.5,25.6,98,94,75,30.46,30.22,6,0,6,0.09
2015-1-2,39.6,36.8,34.7,39.1,36.3,34.2,98,98,98,30.26,29.96,9,1,10,0.43